Location: Larrial
(48.2758°N, 4.5331°W)
Time: 00:50:38
(UTC+00:00)

XW-2F - Pass Details

Date: 04 December 2021
Orbit: 495 x 515 km, 97.5° (Epoch: 16 January)

Event Time Altitude Azimuth Distance (km) Brightness Sun altitude
Rises 07:04:37 0° 7° (N) 2,652 ? -7.7°
Reaches altitude 10° 07:06:46 10° 2° (N) 1,760 ? -7.3°
Maximum altitude 07:10:25 46° 288° (WNW) 701 ? -6.8°
Drops below altitude 10° 07:14:02 10° 215° (SW) 1,741 ? -6.2°
Sets 07:16:09 0° 209° (SSW) 2,621 ? -5.9°
